Theta_e
312 313 313 316 330 331 333 328 322 326 327 327 324 328 328 328 330 336 337 338 336 339 339 337 334 333 332 329 326 324 323 322 322 321 320 319 320 321 321 320 320 320 320 320 320 320 319 319 318
310 311 314 324 333 337 334 327 321 324 325 325 324 326 326 329 333 337 339 337 336 339 338 337 334 332 330 327 324 323 322 321 320 320 319 319 319 319 319 319 319 319 319 319 320 320 320 319 318
311 311 318 327 333 336 334 323 319 321 321 325 325 326 327 331 334 337 337 337 336 338 337 336 333 331 329 326 324 323 322 320 319 319 319 319 318 318 318 318 318 318 319 319 319 317 317 316 316
312 315 318 324 331 332 331 324 319 319 321 323 323 325 328 331 334 336 337 336 336 337 337 335 332 329 328 325 323 322 320 319 318 318 318 317 318 318 318 318 318 318 318 317 317 318 316 316 315
311 316 320 325 325 327 327 322 320 319 323 325 322 324 328 332 335 336 336 336 336 336 336 334 330 327 326 324 323 321 319 317 318 317 316 317 317 318 318 317 317 317 316 317 317 316 316 315 315
314 315 320 324 325 325 325 323 319 317 320 322 322 323 329 334 334 336 336 336 336 336 334 332 329 326 325 323 322 320 317 316 316 315 314 314 314 315 315 316 316 316 316 316 316 315 315 315 314
313 316 319 321 323 324 325 322 318 316 319 322 322 323 332 333 335 335 335 336 335 335 334 331 329 326 325 322 319 316 313 314 314 311 309 308 308 309 310 313 316 316 315 315 315 315 315 314 314
313 314 315 318 321 321 321 316 317 318 318 320 322 322 324 332 334 334 335 336 335 334 333 330 328 327 325 321 318 313 308 308 307 305 305 306 309 310 311 314 310 312 314 315 314 314 312 313 312
311 312 313 314 317 318 318 316 317 315 315 319 322 324 329 334 332 333 334 335 336 334 332 330 328 328 326 322 317 311 307 306 305 306 305 311 312 313 313 310 310 311 311 311 313 314 314 314 313
310 311 312 313 314 316 316 314 316 315 315 317 322 327 330 331 331 332 334 334 334 332 331 330 329 327 325 322 316 314 309 311 310 310 310 312 313 311 312 310 312 312 314 314 316 315 315 315 314
311 310 312 312 312 312 312 313 313 314 315 316 319 325 331 330 331 332 332 332 331 331 330 329 328 327 324 321 317 313 311 311 310 310 311 312 313 313 313 314 314 314 315 316 316 316 314 314 315
310 310 311 311 311 310 310 312 312 312 314 313 316 320 329 332 333 333 331 331 331 332 329 329 328 326 324 321 316 312 311 311 311 310 311 313 314 314 314 314 314 314 316 315 315 315 315 314 313
310 311 310 310 310 309 310 310 311 312 313 312 315 321 327 330 332 332 331 330 332 332 330 328 327 325 324 321 316 313 312 311 310 310 311 312 314 314 314 314 314 315 316 315 315 315 314 314 314
311 310 310 310 309 309 309 309 310 311 312 312 311 314 320 326 329 331 331 330 332 331 330 328 327 325 323 321 316 313 312 311 310 310 311 312 313 313 314 314 314 314 315 315 315 314 314 314 314
309 309 310 310 309 309 309 309 309 310 311 311 312 312 312 320 324 329 330 329 330 330 330 329 327 325 322 321 317 313 312 311 310 310 311 312 313 313 313 314 314 314 315 315 315 315 315 314 313
308 309 311 311 311 310 309 310 310 311 311 311 311 312 312 312 320 324 328 329 329 330 330 329 327 325 322 321 317 313 312 311 310 310 310 312 312 313 313 314 314 314 315 316 315 315 315 314 313
309 311 312 312 310 310 310 311 311 311 311 311 311 312 312 312 312 319 324 327 328 330 330 329 327 325 323 321 317 313 312 311 310 310 310 312 312 312 313 313 313 314 316 316 315 315 316 315 313
310 311 311 312 312 309 310 310 311 310 309 311 311 311 312 312 312 311 318 323 326 329 330 329 327 325 323 320 316 313 312 311 310 310 310 311 312 312 313 313 313 314 316 317 315 315 315 316 315
309 311 311 312 312 309 309 309 311 311 311 310 309 310 311 311 311 311 310 316 323 326 329 329 327 326 323 320 315 313 312 311 310 310 310 311 312 312 313 313 313 314 316 317 316 316 316 317 317
311 310 311 311 312 306 308 309 310 310 310 311 310 310 310 310 311 310 309 309 318 323 327 328 328 326 323 320 316 314 312 312 311 310 309 311 312 312 312 312 313 314 315 316 316 317 317 317 316
313 312 311 311 311 307 306 308 309 310 310 310 310 310 310 310 310 310 310 308 309 320 325 327 328 327 324 320 316 313 312 311 310 309 309 310 312 312 311 312 313 314 315 317 317 317 317 318 316
312 311 310 312 312 313 310 312 313 314 314 312 311 311 310 310 311 311 311 310 309 315 322 324 327 326 324 321 315 313 312 311 310 309 309 309 311 312 311 312 312 313 315 316 317 316 317 318 317
311 309 310 310 311 309 309 311 312 313 313 314 314 313 312 312 312 311 312 311 309 314 319 323 325 326 324 320 315 313 314 312 311 310 309 309 310 312 311 311 312 313 314 316 316 316 316 317 318
310 309 309 310 311 314 312 313 314 315 314 313 314 314 315 313 313 313 312 311 310 312 318 322 324 325 323 320 315 314 315 313 311 310 309 309 310 311 311 311 312 312 314 315 316 316 317 317 317
309 311 314 315 315 315 311 313 314 314 313 313 314 314 314 315 315 314 314 313 310 313 319 322 323 324 323 320 316 316 316 313 311 310 309 309 309 310 311 311 312 312 314 314 316 316 316 317 317
309 312 313 311 314 311 309 312 313 312 313 312 312 313 314 315 316 315 313 312 310 312 319 322 322 323 322 320 317 317 316 313 312 310 309 309 309 310 311 310 311 312 313 313 315 315 315 316 316
310 311 310 313 309 312 310 309 310 312 313 312 312 313 314 314 311 310 310 311 309 312 318 321 321 321 320 319 318 317 316 313 311 310 309 308 308 309 310 311 312 312 312 313 315 315 313 315 315
309 309 311 311 315 313 310 310 312 313 312 313 314 313 312 313 313 310 308 306 307 310 317 320 320 320 319 318 318 317 315 312 311 310 309 308 308 308 310 311 312 312 312 313 314 314 313 314 314
307 309 310 310 312 315 313 310 311 313 313 314 313 311 312 313 312 310 306 306 308 311 316 318 318 318 316 316 316 315 314 313 311 309 308 307 307 307 310 311 312 312 312 312 314 313 313 314 313
308 308 309 312 312 311 312 312 309 309 309 309 310 306 305 308 311 307 307 310 312 314 316 317 316 317 315 315 315 314 313 312 310 309 308 307 306 308 310 311 312 312 312 312 313 313 313 313 313
Wind_Speed
13 13 11 8 6 7 12 8 12 6 7 0 5 4 4 6 6 3 11 6 17 19 21 18 14 14 13 10 9 10 9 9 9 8 8 8 7 7 7 7 7 7 7 8 8 8 9 9 10
11 12 10 6 7 12 11 11 9 8 2 3 2 5 6 2 6 9 11 11 17 20 19 18 15 14 12 10 10 10 10 9 9 8 8 8 7 7 7 8 9 9 8 9 9 9 10 11 11
10 9 7 5 12 14 11 4 7 2 2 3 3 2 6 4 4 13 10 17 18 19 17 19 18 15 12 9 10 10 9 9 8 8 8 8 8 8 8 9 9 10 10 10 10 10 11 11 10
6 6 5 10 17 13 14 2 2 5 4 6 3 5 4 4 6 7 15 18 18 17 17 19 17 14 11 10 10 10 10 9 8 8 7 8 8 8 8 9 9 10 10 11 10 11 11 11 11
8 5 11 13 19 18 7 8 8 7 5 8 7 3 1 5 7 11 17 17 18 17 17 18 15 12 10 10 10 10 9 8 8 7 7 8 8 7 8 9 9 10 10 10 11 12 11 12 11
6 5 12 14 19 16 10 12 10 10 9 6 6 7 4 6 11 14 16 16 17 17 17 17 14 11 8 10 10 9 9 8 7 6 6 7 7 7 7 8 9 9 10 11 11 12 11 12 11
11 10 16 19 18 13 10 9 10 13 11 12 1 6 6 9 12 14 16 15 15 17 19 16 13 9 8 10 9 8 8 7 6 4 4 4 5 6 6 7 8 8 10 10 11 13 13 12 12
5 10 20 19 17 19 12 4 9 14 13 3 4 5 5 13 14 15 15 16 15 17 17 15 13 11 10 11 9 7 5 4 3 3 3 5 7 7 7 9 7 9 9 10 13 15 17 14 17
4 8 15 21 19 16 5 7 8 3 11 6 7 1 7 19 16 15 14 14 16 16 16 15 13 11 11 10 10 7 5 3 3 3 3 6 3 4 5 7 8 9 11 13 15 17 19 18 12
10 12 21 17 18 14 14 8 12 6 11 11 10 7 13 18 18 18 16 18 17 17 16 15 14 12 12 11 10 8 6 4 3 3 3 2 3 3 4 6 9 11 12 14 14 17 16 14 12
8 19 17 17 10 14 16 13 11 11 15 14 15 14 12 17 18 19 20 21 18 18 17 16 15 13 14 11 10 8 7 5 4 4 3 2 2 3 3 3 5 7 11 11 11 14 15 15 14
14 19 17 19 10 9 15 15 14 15 16 6 11 6 17 16 17 21 23 22 21 20 18 17 16 14 14 12 10 9 7 6 4 4 4 2 2 3 4 4 5 7 9 12 12 11 13 14 15
18 20 18 14 17 14 15 15 18 18 14 5 2 3 13 15 16 20 20 21 23 23 21 19 17 15 15 13 11 9 8 7 5 5 4 3 3 3 3 4 5 7 8 10 11 10 12 13 14
13 12 19 19 16 17 16 21 20 16 18 16 12 10 11 14 16 19 22 23 24 23 23 21 19 17 16 14 12 10 9 8 7 5 5 5 4 4 3 4 5 6 7 9 10 11 11 12 14
18 21 19 20 17 15 11 23 26 21 21 15 19 16 13 14 17 21 24 24 25 24 23 24 22 19 17 16 13 11 10 9 8 6 6 5 4 4 3 3 4 5 6 8 9 10 10 13 15
11 18 21 17 21 14 12 22 17 21 23 25 22 19 17 19 18 21 23 24 25 24 26 25 23 22 19 17 15 12 11 10 9 8 7 7 5 5 4 4 4 4 5 8 8 10 11 14 15
20 18 20 18 10 14 19 18 16 20 16 20 23 23 21 19 19 24 24 24 25 27 26 27 25 24 22 19 15 13 12 11 10 9 8 8 6 5 5 4 4 4 5 8 8 10 10 14 16
19 21 22 23 13 20 21 24 18 9 9 19 20 20 20 22 23 26 27 26 25 26 27 27 26 24 23 20 16 14 13 11 10 10 9 10 7 6 6 5 5 5 5 7 8 9 11 14 17
25 21 25 20 20 13 20 21 22 19 20 18 16 15 20 21 18 24 28 27 28 27 29 30 30 28 27 24 22 18 16 14 12 11 11 11 9 7 7 6 6 5 5 7 9 8 6 6 6
29 29 29 19 13 7 15 22 20 21 22 23 22 23 22 19 18 18 22 29 31 32 31 31 32 31 30 26 24 20 19 14 13 12 12 11 10 9 8 7 7 6 5 6 7 5 2 1 0
30 32 27 25 10 10 16 23 25 26 25 24 24 23 23 23 22 19 20 26 30 31 33 33 32 32 32 27 25 19 19 14 14 14 13 12 11 10 9 8 7 7 5 5 5 6 5 1 1
29 26 25 24 18 18 13 16 21 16 23 25 24 23 23 22 20 20 20 22 28 33 32 32 32 33 33 31 29 29 26 21 18 19 16 14 13 11 10 9 8 7 5 5 3 3 4 3 4
33 20 22 22 20 15 22 12 21 17 25 25 21 21 22 21 21 21 19 25 31 32 34 34 34 34 34 34 32 31 23 21 21 20 18 16 14 13 12 10 9 8 6 5 3 2 3 3 3
21 21 21 16 13 12 28 20 20 20 23 17 19 20 20 21 22 21 21 24 28 31 33 35 35 35 34 35 33 32 29 25 24 22 21 19 17 15 13 12 10 9 7 6 4 4 4 5 8
25 18 8 10 8 14 20 17 28 14 16 17 22 20 20 18 18 18 17 17 23 29 31 33 34 35 36 36 33 33 30 28 28 27 24 22 19 17 16 15 12 10 8 6 5 5 6 7 8
30 26 10 15 12 23 12 14 18 13 22 22 17 15 14 15 12 13 16 17 23 30 34 35 36 36 37 36 34 33 32 29 26 27 25 23 22 20 18 17 14 10 9 8 6 6 7 8 9
21 28 30 13 1 7 12 26 23 13 10 11 16 15 17 15 12 13 13 14 20 28 33 36 36 35 38 37 35 34 33 29 26 26 25 23 20 21 21 19 15 13 10 9 8 7 9 9 10
23 25 22 16 15 13 15 21 12 16 22 22 17 14 14 12 14 13 12 12 19 25 28 30 31 32 35 35 35 34 32 30 27 28 26 24 23 24 23 20 16 14 12 11 9 10 10 11 13
24 23 16 20 18 12 9 11 3 15 17 11 8 5 10 14 11 12 10 13 16 20 24 27 28 29 31 33 33 33 32 30 29 29 27 27 25 26 24 21 18 16 14 12 10 11 13 11 14
29 28 27 15 24 21 10 10 4 5 8 7 9 3 5 9 7 10 10 12 16 18 21 24 26 28 30 32 31 31 31 30 29 29 28 27 26 25 24 21 19 17 16 13 12 13 13 12 16
Wind_Direction
323 306 291 266 243 233 255 234 244 237 222 325 318 270 289 12 345 6 135 129 143 145 150 152 156 151 140 133 126 116 106 98 90 83 74 68 61 55 49 42 35 28 20 10 2 355 349 343 338
315 306 260 266 247 244 251 208 208 229 14 340 259 250 256 97 70 117 137 147 148 143 152 151 155 147 137 132 124 114 106 99 90 81 72 67 61 57 51 42 33 29 21 9 2 360 356 346 338
309 280 267 232 241 246 263 116 241 353 212 221 236 265 340 68 85 140 117 146 147 146 152 156 152 138 137 133 123 113 106 98 89 79 71 70 63 55 48 46 34 25 18 11 6 360 358 355 346
300 211 247 249 247 240 273 208 182 257 184 177 255 243 121 41 134 123 144 148 146 152 151 158 150 140 138 135 122 114 107 98 89 80 77 71 63 57 49 39 30 23 16 8 2 355 352 345 340
242 263 255 237 251 255 238 280 294 265 239 192 198 220 118 124 124 133 147 153 152 155 148 150 152 144 143 140 126 119 109 100 91 85 78 71 66 59 49 37 30 27 22 12 7 357 349 343 342
247 249 250 249 248 242 250 262 247 250 241 167 216 239 119 130 154 144 154 157 159 152 152 152 154 158 155 143 132 122 112 103 95 85 76 67 60 57 55 45 36 27 18 11 8 360 357 358 357
245 241 251 265 272 271 238 219 236 244 229 213 152 223 94 158 150 151 158 159 162 157 154 158 156 161 164 158 149 137 120 112 102 90 82 64 51 47 54 48 41 29 20 14 6 1 359 2 6
274 257 258 254 261 269 257 205 256 252 247 102 194 230 189 160 148 153 158 165 163 164 163 165 160 153 148 148 166 153 131 121 117 90 71 59 46 42 37 46 32 32 27 11 10 8 17 23 22
261 246 244 247 255 267 281 252 211 323 273 220 187 300 105 141 152 148 157 171 167 172 175 171 169 167 162 155 165 162 148 126 101 82 73 54 55 41 27 34 42 33 27 23 19 23 23 20 12
220 237 243 256 269 280 276 269 271 235 225 215 200 126 135 149 163 168 172 173 176 178 182 179 176 174 169 166 158 147 141 138 141 122 95 81 69 59 67 43 41 28 28 19 19 18 24 21 23
224 243 256 256 271 279 279 268 252 253 254 229 216 184 162 164 177 183 189 188 180 186 184 186 182 178 176 175 167 158 159 156 148 136 121 113 75 59 52 42 32 28 25 25 24 30 33 33 31
250 252 256 266 274 266 257 270 260 244 249 1 305 253 168 181 184 190 191 191 183 197 192 190 186 181 181 178 174 168 165 163 153 152 146 126 90 78 70 63 41 36 32 34 38 37 35 42 38
237 257 264 255 265 248 269 257 256 262 253 189 37 254 186 195 194 195 195 195 193 200 193 192 189 186 184 183 177 173 168 160 162 153 154 131 104 94 75 76 55 52 44 39 46 40 47 37 40
275 259 263 254 247 253 249 255 252 249 248 249 210 220 215 209 204 195 195 200 203 197 195 191 191 188 186 187 179 175 169 165 158 162 156 141 120 121 94 87 72 61 54 52 55 61 49 40 48
262 271 261 247 247 242 259 257 248 248 257 246 233 223 226 217 211 206 202 203 205 199 193 192 191 189 188 188 182 175 172 167 166 164 156 148 134 132 122 111 87 74 59 66 68 64 49 51 55
259 248 255 247 234 226 211 257 255 234 233 243 238 230 220 225 213 215 206 205 205 202 197 193 190 187 187 186 183 178 176 171 167 165 161 158 149 144 134 125 104 87 83 83 86 71 63 61 66
235 253 237 251 226 214 212 260 251 242 240 242 237 236 232 223 218 217 210 206 203 203 197 194 191 186 184 183 182 179 178 173 171 168 166 165 160 152 144 136 128 108 102 96 99 81 73 74 71
233 237 246 256 223 219 228 240 250 224 261 245 244 241 234 231 221 217 213 207 205 202 199 195 192 187 182 177 175 175 175 175 175 173 170 167 166 159 153 142 140 129 124 118 117 116 90 82 83
250 248 238 241 229 228 242 255 253 248 244 237 241 244 244 227 228 224 212 210 203 202 199 196 191 188 180 175 175 176 178 179 176 176 175 169 170 165 164 154 151 144 147 139 140 129 121 94 80
239 243 248 257 246 222 266 264 256 254 249 250 247 242 237 237 233 215 210 207 205 202 201 196 194 188 185 180 178 175 176 184 179 175 177 176 174 170 169 162 162 155 152 152 174 176 218 322 325
234 234 237 245 254 240 272 269 259 253 250 247 244 243 242 238 229 217 202 203 203 202 199 197 193 189 187 182 173 167 167 166 173 178 177 181 175 176 174 169 166 165 162 163 179 195 220 227 70
242 234 248 250 249 253 225 276 266 262 242 229 234 232 233 234 233 221 203 199 199 200 197 197 193 190 188 182 174 169 168 168 187 178 178 176 179 178 180 175 170 168 162 166 171 186 199 193 134
250 247 245 243 246 264 255 263 266 240 244 240 237 228 232 227 226 222 217 194 197 192 191 192 191 191 188 186 180 174 175 179 172 171 172 174 177 182 181 178 178 172 162 165 150 148 166 181 145
267 243 242 233 233 238 240 235 263 243 246 249 247 238 224 228 221 218 211 203 194 191 188 186 187 190 187 187 183 180 177 172 168 171 171 173 175 179 184 180 177 179 172 160 138 120 117 119 120
224 222 196 203 201 232 226 224 236 245 233 249 242 239 237 225 215 213 213 192 188 187 184 181 183 188 188 189 186 183 180 173 174 172 172 171 174 177 182 179 177 179 175 162 146 134 129 118 123
209 210 205 195 198 234 195 228 226 238 244 249 251 246 250 235 220 207 201 195 192 186 184 181 183 186 186 187 187 183 179 176 177 176 173 175 174 177 180 176 174 176 178 167 150 141 140 138 119
226 215 219 245 91 263 214 236 268 257 245 241 246 240 235 221 207 198 198 193 191 189 185 183 183 184 184 186 183 181 179 176 174 174 177 174 171 174 176 174 169 171 175 170 158 155 144 145 130
231 218 220 236 240 231 229 237 240 199 227 229 236 225 231 225 212 195 186 188 192 190 188 185 183 183 183 182 181 178 176 174 173 172 170 169 168 175 172 170 168 168 172 173 162 159 151 143 142
224 221 217 224 230 230 241 240 270 237 255 248 245 289 253 216 206 188 185 176 182 184 183 183 183 180 178 179 178 174 174 171 170 173 171 172 171 172 172 168 168 169 171 172 168 165 160 147 145
218 215 214 221 216 236 247 238 49 341 322 304 277 274 297 271 176 159 171 165 168 174 174 177 179 176 177 178 174 171 169 168 168 169 170 171 169 170 171 169 170 170 171 172 173 170 162 157 148